Location: Maple Heights
(41.4153°N, 81.5660°W)
Time: 01:15:09
(UTC+00:00)

Daily predictions for brighter satellites

Satellite Brightness Start Highest point End
(mag) Time Altitude Azimuth Time Altitude Azimuth Time Altitude Azimuth
Cosmos 2233 Rocket 4.2 01:11:10 10° S 01:17:30 85° W 01:23:51 10° N
Meteor 2-6 Rocket 4.2 01:12:41 10° S 01:18:05 89° E 01:23:36 10° N
Okean-O 3.1 01:14:19 10° S 01:18:41 66° WSW 01:23:06 10° NNW
CSL-04 Rocket 3.9 01:15:44 10° S 01:21:00 73° WSW 01:26:23 10° NNW
Aureole 1 Rocket 3.0 01:18:39 10° S 01:21:39 31° ESE 01:24:23 10° NE
Cosmos 2227 Rocket 2.3 01:20:27 10° NNW 01:26:08 69° ENE 01:31:46 10° SSE
Cosmos 1536 3.7 01:25:37 10° N 01:29:18 33° ENE 01:32:58 10° SE
Cosmos 1980 Rocket 2.7 01:27:20 10° S 01:32:29 38° ESE 01:37:40 10° NE
RESURS DK-1 3.8 01:30:37 10° SSE 01:33:26 18° ESE 01:36:16 10° ENE
SL-4 R/B 2.4 01:29:41 10° NW 01:34:18 68° NNE 01:38:30 11° ESE
ASTRO E2 4.5 01:31:46 10° SW 01:34:20 17° S 01:36:53 10° SSE
ARGOS Delta rocket 4.4 01:31:46 10° NNE 01:37:07 50° E 01:42:18 10° S
Cosmos 1184 Rocket 3.5 01:35:51 10° SSE 01:38:31 30° E 01:41:14 10° NNE
H-2A R/B 1.9 01:35:17 10° NNE 01:39:23 85° ESE 01:43:30 10° SSW
Cosmos 2369 3.8 01:37:08 10° S 01:42:36 55° ESE 01:48:07 10° NNE
Cosmos 1328 Rocket 3.8 01:39:40 10° SSW 01:43:57 71° W 01:48:17 10° N
Cosmos 1486 Rocket 4.0 01:38:48 10° SSW 01:44:06 83° ESE 01:49:25 10° NNE
IRS-1A Rocket 4.4 01:39:05 10° SSE 01:44:38 64° ENE 01:50:21 10° N
Cosmos 1464 Rocket 4.1 01:40:30 10° SSE 01:46:31 56° E 01:52:31 10° NNE
Cosmos 1697 Rocket 3.0 01:45:27 10° SSW 01:51:06 75° WNW 01:56:48 10° NNE
Cosmos 405 3.1 01:49:34 10° NNW 01:52:58 72° W 01:56:22 10° S
Cosmos 389 Rocket 2.7 01:50:48 10° N 01:54:14 50° ENE 01:56:49 16° SSE
MOS 1 4.3 01:48:58 10° SSE 01:54:37 85° ENE 02:00:18 10° NNW
CZ-4B R/B 1.2 01:53:15 10° NNE 01:56:27 87° WNW 01:59:33 10° SSW
MetOp-B 4.4 01:56:39 14° SE 02:01:11 55° ENE 02:06:24 10° N
Cosmos 1515 3.8 01:58:25 10° S 02:02:11 78° W 02:05:57 10° N
ATLAS 2AS CENTAUR R/B 3.0 01:54:43 10° SSW 02:02:19 57° ESE 02:09:45 10° NE
Cosmos 2297 Rocket 3.4 01:57:32 10° NW 02:02:45 39° WSW 02:07:56 10° S
Nadezhda 4 Rocket 4.3 01:56:58 10° N 02:03:01 51° ENE 02:07:53 16° SSE
EXPRESS MD2 3.5 02:02:41 10° WNW 02:08:44 77° NNE 02:10:54 21° ESE
Helios 1A Rocket 4.0 02:07:25 19° ESE 02:09:31 30° ENE 02:13:01 10° N
Cosmos 1933 Rocket 3.5 02:06:40 10° N 02:11:10 77° E 02:14:37 17° SSE
Cosmos 1340 3.0 02:08:07 10° SSW 02:11:49 66° WNW 02:15:33 10° N
Cosmos 1503 Rocket 4.0 02:08:10 10° SSW 02:13:26 88° ESE 02:18:48 10° NNE
ERS-1 Rocket 4.0 02:12:29 18° ESE 02:15:21 30° ENE 02:19:43 10° N
SJ 16-02 1.2 02:16:14 10° S 02:20:33 68° ESE 02:24:55 10° NNE
SL-16 R/B 3.3 02:18:47 20° SE 02:20:43 25° ESE 02:25:13 10° NE
SPOT 1/Viking Rocket 3.8 02:22:08 13° S 02:26:41 66° WSW 02:31:49 10° NNW
Cosmos 1743 3.3 02:23:37 10° NNW 02:27:18 52° W 02:30:10 15° SSW
Timation 2 Rocket 4.1 02:20:45 10° NNW 02:27:24 81° ENE 02:32:04 22° SSE
NOSS 2-1 (E) 4.3 02:29:30 21° E 02:29:30 21° E 02:31:05 10° ENE
ATLAS 3B R/B 4.0 02:22:38 10° NNW 02:29:15 35° NE 02:35:07 14° ESE
BREEZE M DEB (TANK) 4.0 02:28:49 10° NW 02:32:52 69° NNE 02:47:28 11° ESE
Cosmos 1346 Rocket 3.7 02:36:32 29° ESE 02:37:06 30° E 02:40:38 10° NNE
Meteor 1-18 Rocket 4.3 02:34:06 20° SSE 02:37:56 59° E 02:43:28 10° NNE
OAO 3 Rocket 4.2 02:36:09 10° WSW 02:40:24 29° SSW 02:41:32 26° S
Cosmos 2278 3.6 02:35:31 10° SSW 02:41:11 87° ESE 02:46:53 10° NNE
Meteor 2-21 4.4 02:36:46 10° N 02:42:54 86° E 02:46:53 23° S
Resurs 01 Rocket 3.1 02:39:27 10° SSW 02:43:22 31° W 02:47:18 10° NNW
Ariane Rocket 3.8 02:40:49 14° S 02:44:53 46° W 02:49:47 10° NNW
Cosmos 2360 Rocket 3.7 02:45:49 17° E 02:45:49 17° E 02:49:14 10° ENE
SPOT 5 3.1 02:43:22 29° SSE 02:46:04 68° ENE 02:51:12 10° N
Terra 2.3 02:44:35 30° ESE 02:46:24 44° ENE 02:50:56 10° N
Cosmos 2292 Rocket 3.0 02:44:54 10° N 02:47:45 45° ENE 02:47:45 45° ENE
Cosmos 2082 4.2 02:43:38 10° NNW 02:49:08 55° WSW 02:52:31 23° S
Cosmos 2034 Rocket 4.3 02:43:27 10° SSW 02:49:42 68° W 02:56:03 10° N
Cosmos 921 Rocket 3.7 02:46:04 10° NNW 02:50:28 52° WSW 02:52:48 25° SSW
Cosmos 2263 Rocket 2.1 02:46:04 10° NNW 02:51:40 77° ENE 02:54:16 33° SSE
ISS -2.7 02:48:52 10° NW 02:52:03 39° NNE 02:53:04 30° ENE
Cosmos 1378 2.9 02:52:06 46° S 02:53:05 78° E 02:56:45 10° N
Meteor 2-21 Rocket 4.4 02:50:42 10° N 02:56:49 82° E 03:00:06 30° SSE
CARTOSAT-1 4.3 02:54:34 24° SSW 02:56:54 48° W 03:01:06 10° NNW
Cosmos 1869 Rocket 3.9 02:56:46 10° NNW 03:01:13 65° W 03:03:11 32° SSW
Cosmos 2228 Rocket 3.5 02:58:45 21° SSW 03:01:45 64° W 03:06:18 10° N
Cosmos 2344 4.4 03:00:36 10° WSW 03:07:49 49° NW 03:15:15 10° NNE
Meteor 2-16 Rocket 4.4 03:02:26 10° N 03:08:38 86° E 03:11:32 34° S
NOSS 2-1 (C) 2.8 03:07:57 51° SW 03:08:41 79° NW 03:11:52 10° NNE
Cosmos 2279 Rocket 4.2 03:07:07 35° SE 03:09:26 52° E 03:15:26 10° NNE
Cosmos 2227 Rocket 4.5 03:06:09 10° WNW 03:09:31 16° W 03:12:51 10° SW
Cosmos 482 Debris 4.3 03:07:48 10° NW 03:11:00 74° NE 03:11:58 50° ESE
RESURS DK-1 3.8 03:07:17 10° SW 03:11:08 37° WNW 03:14:59 10° N
SL-4 R/B 3.7 03:10:02 10° W 03:13:27 22° SW 03:13:57 21° SW
Cosmos 1980 Rocket 4.0 03:11:33 10° WSW 03:16:31 32° WNW 03:21:33 10° N
SL-24 R/B - RUBIN 2 3.6 03:12:42 10° NNW 03:17:06 71° NE 03:18:06 52° ESE
Spot 2 Rocket 3.8 03:16:25 33° SSW 03:18:31 58° W 03:23:29 10° NNW
NOSS 2-1 (D) 3.3 03:18:12 39° WSW 03:19:09 58° NW 03:22:17 10° NNE
ATLAS CENTAUR R/B 4.0 03:19:58 10° N 03:23:09 17° NE 03:25:48 12° ENE
Cosmos 1707 Rocket 3.8 03:22:35 40° SSW 03:24:03 69° W 03:28:27 10° N
ARIANE 5 R/B 2.5 03:23:46 58° SSE 03:24:38 89° E 03:29:09 10° NNW
Cosmos 2322 Rocket 2.2 03:23:15 44° SSE 03:24:48 61° ESE 03:30:20 10° NNE
USA 215 3.6 03:18:59 10° ENE 03:25:02 38° SE 03:25:34 38° SE
BREEZE-M DEB (TANK) 2.8 03:22:55 10° NW 03:25:20 49° NNE 03:26:20 37° ENE
Cosmos 1733 4.2 03:22:49 10° N 03:25:54 33° ENE 03:25:54 33° ENE
Cosmos 2333 Rocket 3.5 03:31:12 23° E 03:31:12 23° E 03:34:52 10° NE
Cosmos 1844 Rocket 3.7 03:26:00 10° N 03:31:05 35° ENE 03:32:53 28° E
Meteor 2-4 Rocket 4.1 03:28:29 23° SSW 03:32:03 61° WNW 03:37:40 10° N
Cosmos 1975 3.6 03:31:45 10° NNW 03:35:37 43° W 03:36:17 39° WSW
Cosmos 44 Rocket 3.2 03:30:59 10° NW 03:35:40 69° WSW 03:36:16 61° SSW
Meteor 1-4 Rocket 3.4 03:32:51 10° N 03:35:33 40° NE 03:35:33 40° NE
Cosmos 2180 Rocket 4.4 03:35:27 46° SSE 03:37:12 66° E 03:43:17 10° NNE
CSL-04 DEB 4.3 03:34:05 10° N 03:38:05 79° WNW 03:38:25 71° SW
Cosmos 2219 Rocket 3.5 03:49:49 24° E 03:49:49 24° E 03:53:22 10° NE
SAR-Lupe-4 4.1 03:47:13 10° N 03:50:31 56° NW 03:50:31 56° NW
ATLAS 2AS CENTAUR R/B 4.3 03:46:26 10° WSW 03:53:36 39° NW 04:00:36 10° NNE
ERS-1 Rocket 4.3 03:52:27 26° SW 03:54:03 31° W 03:58:32 10° NNW
Cosmos 1733 Rocket 3.6 03:51:17 10° NNW 03:55:36 49° W 03:56:04 47° WSW
Cosmos 1844 4.4 03:50:01 10° NNW 03:55:37 46° ENE 03:57:04 39° E
SJ 16-02 4.3 03:57:46 10° W 03:59:36 12° WNW 04:01:26 10° NNW
Cosmos 1726 3.4 03:59:46 10° N 04:02:17 33° NE 04:02:17 33° NE
SL-16 R/B 3.0 04:00:33 18° SW 04:04:28 47° WNW 04:09:57 10° NNE
Cosmos 2237 4.4 04:04:12 36° SW 04:06:31 67° WNW 04:12:13 10° NNE
Cosmos 1908 Rocket 3.6 04:03:13 10° N 04:07:12 69° NE 04:07:12 69° NE
Geosat 3.9 04:09:12 71° SSW 04:09:34 76° WSW 04:14:37 10° NNW
Cosmos 1441 Rocket 4.4 04:10:50 35° WNW 04:10:50 35° WNW 04:14:12 10° N
Meteor 2-10 3.8 04:06:14 10° N 04:11:30 88° E 04:11:51 78° SSE
Cosmos 2242 Rocket 4.0 04:13:47 56° ENE 04:13:47 56° ENE 04:17:45 10° NNE
ALOS 2 3.9 04:14:10 30° ENE 04:14:10 30° ENE 04:17:55 10° N
Cosmos 1655 Rocket 3.9 04:11:34 10° N 04:17:50 83° E 04:18:59 62° SSE
ATLAS 3B R/B 3.0 04:13:06 10° NW 04:20:26 64° WSW 04:22:21 49° S
COSMOS 2428 3.7 04:23:47 32° E 04:23:47 32° E 04:28:08 10° NE
Cosmos 923 Rocket 4.0 04:17:51 10° NNW 04:23:11 73° WSW 04:23:29 71° SW
Cosmos 1842 4.4 04:24:27 37° NE 04:24:27 37° NE 04:27:01 10° NNE
Cosmos 1937 Rocket 3.3 04:23:08 82° SSE 04:23:20 86° ESE 04:28:39 10° NNE
CZ-4C R/B 4.0 04:17:14 10° NNW 04:23:56 39° NE 04:29:38 18° ESE
Terra 3.7 04:23:27 18° WSW 04:24:21 19° W 04:27:45 10° NW
Meteor 1-15 Rocket 4.1 04:21:36 10° N 04:27:18 87° E 04:27:54 73° SSE
ISS -0.7 04:25:51 10° WNW 04:25:58 11° WNW 04:25:58 11° WNW
Cosmos 2360 Rocket 2.4 04:27:32 47° WSW 04:29:01 64° WNW 04:34:39 10° NNE
NOSS 3-1 (C) 4.5 04:24:20 10° NNW 04:31:44 58° NE 04:36:05 30° ESE
Cosmos 1867 4.3 04:35:35 40° E 04:35:35 40° E 04:39:47 10° NE
Cosmos 2263 Rocket 4.3 04:32:07 10° WNW 04:34:49 14° W 04:35:57 13° WSW
Cosmos 2333 4.0 04:34:43 78° S 04:35:05 86° ESE 04:40:44 10° NNE
Spot 4 3.8 04:43:39 76° WNW 04:43:39 76° WNW 04:48:11 10° NNW
Cosmos 2112 Rocket 3.9 04:38:26 10° NNW 04:43:45 75° WSW 04:43:45 75° WSW
Okean 1-7 4.0 04:44:37 40° WNW 04:44:37 40° WNW 04:48:38 10° N
Cosmos 1680 Rocket 3.6 04:39:28 10° NNW 04:44:38 62° W 04:44:38 62° W
Cosmos 2266 Rocket 4.2 04:42:34 10° NNW 04:48:38 55° W 04:49:37 50° SW
Okean 3 4.4 04:50:52 43° WNW 04:50:52 43° WNW 04:54:27 10° N
Cosmos 2278 Rocket 4.0 04:47:07 10° N 04:51:37 23° NE 04:54:16 17° E
Iridium 4 Rocket 3.9 04:48:20 10° NNW 04:52:48 47° W 04:52:48 47° W
Cosmos 1818 3.5 04:49:17 10° NW 04:54:36 77° W 04:54:36 77° W
Meteor 2-17 Rocket 4.3 04:50:57 10° N 04:57:09 83° E 04:57:51 71° SSE
H-2A R/B 4.2 04:54:42 10° N 04:57:58 50° NNW 04:57:58 50° NNW
Cosmos 1461 4.0 04:55:14 10° NNW 04:58:53 39° NE 04:58:53 39° NE
Meteor 1-22 Rocket 4.3 04:53:32 10° NNW 04:59:30 75° W 05:00:04 69° SW
ATLAS CENTAUR R/B 2.0 04:57:46 10° NW 05:01:48 61° NW 05:01:48 61° NW
USA 215 3.6 05:01:45 10° NE 05:08:13 64° NW 05:12:52 20° WSW
Cosmos 2322 Rocket 4.3 05:05:03 10° W 05:09:17 21° NW 05:13:31 10° N
ADEOS Rocket 2.7 05:13:15 76° SE 05:13:42 82° ENE 05:19:40 10° NNW
Cosmos 2322 3.8 05:13:04 64° WSW 05:13:42 70° WNW 05:19:26 10° NNE
Cosmos 2333 Rocket 2.8 05:13:10 42° W 05:14:24 50° WNW 05:19:54 10° NNE
Cosmos 1844 Rocket 3.7 05:09:57 10° NW 05:14:32 33° W 05:14:32 33° W
ASTEX 1 3.8 05:12:08 10° NNE 05:16:31 53° ENE 05:16:31 53° ENE
Cosmos 1707 4.1 05:20:46 37° NNW 05:20:46 37° NNW 05:23:21 10° N
Cosmos 2221 Rocket 4.2 05:20:54 54° NNE 05:20:54 54° NNE 05:24:23 10° NNE
ERS-2 3.9 05:22:13 10° N 05:24:27 28° NNW 05:24:27 28° NNW
Cosmos 1378 Rocket 4.3 05:28:59 47° NE 05:28:59 47° NE 05:32:27 10° NNE
SL-08 ROCKET BODY 4.4 05:23:22 10° NNW 05:29:10 63° W 05:29:27 62° WSW
Okean 2 4.3 05:30:47 45° NNW 05:30:47 45° NNW 05:33:45 10° N
Cosmos 2219 Rocket 2.8 05:31:30 41° W 05:32:33 46° WNW 05:37:56 10° NNE
Cosmos 2150 Rocket 4.3 05:33:55 54° E 05:33:55 54° E 05:38:30 10° NNE
Cosmos 494 Rocket 4.1 05:31:38 10° NNW 05:36:44 65° ENE 05:36:47 65° ENE
Cosmos 1048 Rocket 4.0 05:32:55 10° NNW 05:38:01 73° ENE 05:38:01 73° ENE
S3M 4.0 05:38:12 61° SE 05:39:03 68° E 05:45:22 10° NNE
USA 267 3.3 05:38:54 34° ESE 05:41:58 78° NE 05:48:31 10° NW
Cosmos 1553 Rocket 3.9 05:42:09 65° SW 05:42:51 72° W 05:49:03 10° N
CZ-2D R/B 4.3 05:41:18 10° ENE 05:43:55 14° E 05:44:50 13° E
Cosmos 1125 Rocket 3.5 05:44:18 72° ENE 05:44:18 72° ENE 05:49:12 10° NNE
Meteor 1-16 Rocket 4.3 05:38:41 10° N 05:44:38 73° E 05:45:16 66° SE
Cosmos 405 Rocket 4.1 05:48:24 37° N 05:48:24 37° N 05:50:48 10° N
USA 305 3.9 05:49:28 43° NE 05:49:28 43° NE 05:52:24 10° NE
USA 229 DEB 4.0 05:41:36 10° NNW 05:49:03 74° NE 05:52:46 35° SE
USA 229 4.0 05:41:42 10° NNW 05:49:08 73° NE 05:52:54 34° SE
ALOS 2 4.4 05:51:33 22° WNW 05:51:33 22° WNW 05:53:58 10° NW
Cosmos 1626 3.8 05:55:00 29° NNW 05:55:00 29° NNW 05:57:09 10° N
Cosmos 2151 Rocket 4.3 05:50:02 10° NNW 05:53:24 47° NW 05:53:24 47° NW
PSLV R/B 4.1 05:50:52 10° N 05:54:43 55° NW 05:54:43 55° NW
Cosmos 1437 Rocket 4.0 05:52:22 10° N 05:54:47 38° N 05:54:47 38° N
NOSS 2-2 (E) 4.4 05:51:37 10° NW 05:57:06 86° NE 05:58:58 52° SE
NOSS 0 Rocket 3.8 05:56:55 68° SW 05:57:47 84° WNW 06:04:05 10° NNE
Okean 2 Rocket 4.0 05:54:01 10° NNW 05:57:28 41° WNW 05:57:28 41° WNW
Lacrosse 5 rocket 3.9 06:01:10 12° E 06:01:10 12° E 06:01:36 10° ENE
Cosmos 2237 Rocket 2.0 06:02:09 78° SSE 06:02:26 81° ESE 06:08:09 10° NNE
Cosmos 332 Rocket 4.3 06:04:18 51° E 06:04:18 51° E 06:08:31 10° NNE
COSMOS 2428 3.8 06:05:45 31° W 06:07:15 36° WNW 06:12:28 10° N
Cosmos 1953 3.2 06:04:15 10° N 06:07:09 46° NNW 06:07:09 46° NNW
Resurs 1-4 Rocket 3.6 06:05:09 10° NE 06:09:23 24° E 06:10:14 23° ESE
GP-B 3.7 06:07:41 10° NNE 06:11:45 49° ENE 06:11:45 49° ENE
CZ-4C R/B 3.1 06:05:30 10° NW 06:12:56 60° WSW 06:14:45 50° SSW
NOSS 3-1 (A) 4.1 06:08:03 10° NW 06:15:44 68° WSW 06:18:26 47° S
Cosmos 2298 Rocket 4.3 06:16:30 54° W 06:16:54 56° WNW 06:22:08 10° NNE
Cosmos 1943 Rocket 3.8 06:13:58 10° N 06:19:01 31° NE 06:23:41 11° ESE
Meteor 2-12 Rocket 4.3 06:13:56 10° N 06:20:02 85° W 06:20:58 66° S
ADEOS II 4.1 06:19:22 10° NE 06:22:40 17° E 06:24:27 14° ESE
Cosmos 1745 Rocket 4.1 06:16:50 10° NNW 06:22:54 58° W 06:23:37 54° WSW
Thor Agena Rocket 3.6 06:20:16 10° NNE 06:25:32 65° ESE 06:26:03 61° SE
USA 306 4.0 06:29:56 37° NW 06:30:23 38° NNW 06:34:18 10° NE
NOSS 2-2 (D) 4.4 06:27:40 10° NW 06:33:07 68° WSW 06:34:33 54° S
Okean 1 Rocket 4.0 06:29:37 10° NNW 06:33:02 39° WNW 06:33:02 39° WNW
USA 307 3.8 06:34:07 39° NW 06:34:32 40° NNW 06:38:30 10° NE
Cosmos 2278 Rocket 2.3 06:30:31 10° NNW 06:36:03 56° WSW 06:36:05 56° WSW
Cosmos 371 Rocket 4.3 06:41:23 33° WNW 06:41:53 34° WNW 06:46:19 10° N
Lacrosse 5 1.7 06:43:42 77° S 06:44:00 82° SE 06:49:07 10° NE
NPP 4.5 06:39:35 10° NNE 06:44:41 41° E 06:46:05 35° SE
Cosmos 2084 Rocket 3.7 06:45:29 56° N 06:45:29 56° N 06:48:39 10° NNE
USA 32 4.2 06:44:30 53° W 06:44:53 54° W 06:50:03 10° N
ATLAS 5 CENTAUR R/B 3.1 06:37:55 10° NW 06:45:39 44° W 06:45:39 44° W
Cosmos 2369 Rocket 4.5 06:44:27 10° N 06:48:43 22° NE 06:52:59 10° ESE
Cosmos 304 Rocket 4.3 06:49:36 44° W 06:49:59 45° WNW 06:54:38 10° N
SL-16 R/B 2.3 06:49:47 54° SSE 06:50:52 66° ESE 06:56:31 10° NNE
Cosmos 1455 3.5 06:48:59 10° NNE 06:52:21 31° ENE 06:52:49 30° E
SME Rocket 2.9 06:58:11 82° SW 06:58:17 83° WSW 07:03:10 10° NNW
Cosmos 1269 Rocket 4.0 06:54:52 10° NNW 07:00:11 84° ENE 07:01:45 47° SSE
Meteor 2-10 Rocket 3.7 06:55:12 10° NNW 07:00:40 55° W 07:01:19 52° WSW
ERBS 4.4 07:03:17 18° NNW 07:03:17 18° NNW 07:05:31 10° NNE
Cosmos 1300 4.4 07:01:15 10° NNW 07:03:16 23° WNW 07:03:16 23° WNW
SL-16 R/B 2.9 07:01:09 23° SE 07:05:06 64° ENE 07:11:17 10° N
MOZ.5/SAFIR/RUBIN 5/SL-8 4.0 07:09:27 50° W 07:09:29 50° W 07:14:06 10° NNW
Cosmos 2074 Rocket 4.1 07:03:36 10° N 07:09:55 75° E 07:13:08 31° SSE
Cosmos 1455 Rocket 3.3 07:06:34 10° NNW 07:10:48 51° W 07:10:48 51° W
SAR-Lupe-2 4.1 07:11:45 10° NNE 07:15:15 48° E 07:15:21 48° ESE
Meteor 1-24 Rocket 3.7 07:14:10 49° SW 07:15:37 70° W 07:21:05 10° N
Cosmos 1536 Rocket 3.9 07:16:40 45° SE 07:17:41 59° E 07:22:01 10° NNE
COSMOS 2455 2.9 07:18:09 41° S 07:20:14 68° ESE 07:26:14 10° NE
Cosmos 292 Rocket 4.0 07:20:54 43° SSE 07:22:12 60° ESE 07:26:55 10° NNE
CZ-2D R/B 2.1 07:19:11 10° N 07:24:32 74° WNW 07:26:09 45° SW
USA 267 4.1 07:26:11 28° WSW 07:26:11 28° WSW 07:30:54 10° WNW
Cosmos 1975 Rocket 4.2 07:25:12 30° W 07:25:29 30° WNW 07:29:26 10° NNW
Cosmos 2184 Rocket 3.9 07:19:58 10° N 07:26:15 86° W 07:29:21 32° S
CRYOSAT 2 4.4 07:25:17 36° SSE 07:27:15 75° E 07:32:08 10° N
Cosmos 1025 Rocket 3.9 07:27:37 34° W 07:27:52 34° WNW 07:31:48 10° N
MSX 4.4 07:31:09 10° NNE 07:36:46 51° E 07:40:21 22° SSE
Lacrosse 5 rocket 1.8 07:36:40 40° W 07:37:32 49° NW 07:41:28 10° NE
YAOGAN 11 4.0 07:40:01 39° S 07:41:38 79° WSW 07:46:09 10° NNW
OAO 2 Rocket 4.5 07:42:53 25° SSE 07:42:53 25° SSE 07:46:52 10° ESE
Cosmos 1943 3.9 07:41:37 24° SSE 07:44:46 47° ESE 07:50:12 10° NE
Cosmos 1703 3.3 07:45:42 44° S 07:46:51 79° E 07:50:47 10° N
Cosmos 2237 Rocket 4.2 07:43:57 11° W 07:47:12 17° NW 07:50:56 10° N
Resurs 1-4 Rocket 2.7 07:44:23 10° N 07:49:20 42° WNW 07:51:19 30° WSW
UNK 3.8 07:48:51 38° SSW 07:50:22 59° W 07:54:56 10° NNW
EO 1 Del DPAF 2.9 07:48:16 10° NNE 07:51:48 88° ESE 07:52:35 52° SSW
Helios 1A 2.9 07:51:32 26° SSE 07:53:53 86° E 07:58:08 10° NNW
NOSS 3-3 (A) 4.0 07:52:28 29° SSW 07:55:20 66° ESE 08:01:33 10° NE
NOSS 3-3 (C) 4.0 07:52:35 29° SSW 07:55:26 65° ESE 08:01:38 10° NE
Nadezhda 1 Rocket 4.1 07:53:45 29° SSW 07:57:10 67° W 08:03:27 10° N
Cosmos 1544 Rocket 4.4 07:53:28 10° NNW 07:57:20 31° W 07:57:54 30° WSW
Lacrosse 4 Rocket 4.1 07:57:41 10° ESE 07:59:07 11° ESE 08:00:33 10° E
Cosmos 614 Rocket 4.0 07:55:52 10° NNW 08:01:00 64° WSW 08:04:35 20° S
IDEFIX/ARIANE 42P 2.6 07:56:09 10° N 08:01:25 76° WNW 08:04:17 28° SSW
ADEOS II 2.2 07:57:33 10° N 08:02:44 61° WNW 08:05:22 28° SW
Cosmos 1943 Rocket 2.7 07:57:34 10° NW 08:02:49 39° WSW 08:05:08 27° SSW
BREEZE-M DEB (TANK) 4.3 08:02:27 19° SSE 08:03:44 24° ESE 08:08:27 10° ENE
COSMOS 2441 4.5 08:01:04 10° NNE 08:05:56 73° ESE 08:09:05 22° S
Meteor 1-28 Rocket 3.3 08:06:02 37° SSW 08:07:10 54° W 08:10:50 10° NNW
Cosmos 2297 4.0 08:04:54 10° NW 08:10:20 45° WSW 08:13:59 20° S
ALOS 4.3 08:07:32 10° NE 08:11:20 24° E 08:15:07 10° SSE
MOS 1 Rocket 3.6 08:10:22 31° SW 08:11:37 38° W 08:15:38 10° NNW
IRS-1D 3.6 08:07:12 10° NNE 08:12:34 82° ESE 08:16:22 19° S
Cosmos 2251 Rocket 3.4 08:09:20 10° NNW 08:14:36 81° WSW 08:19:54 10° SSE
Cosmos 1892 Rocket 4.1 08:13:50 15° S 08:17:25 60° E 08:21:51 10° NNE
Cosmos 1726 Rocket 3.8 08:17:29 10° N 08:21:54 71° E 08:26:15 10° SSE
Cosmos 2366 rocket 4.4 08:20:43 10° N 08:26:51 66° E 08:33:00 10° SSE
Lacrosse 5 3.6 08:23:18 10° W 08:27:30 25° NNW 08:31:43 10° NNE
Cosmos 1455 4.0 08:25:22 10° NW 08:27:30 15° W 08:27:34 15° W
CZ-2C R/B 3.8 08:24:49 10° NNE 08:29:33 38° E 08:34:08 10° SSE
Cosmos 2341 Rocket 4.0 08:24:47 10° N 08:31:12 80° W 08:37:34 10° S
Cosmos 2369 Rocket 2.2 08:27:40 10° NNW 08:33:09 59° WSW 08:38:38 10° S
SL-8 Rocket 4.1 08:27:00 10° N 08:33:22 89° E 08:39:41 10° S
Cosmos 1656 Rocket 3.5 08:29:28 10° NNW 08:34:52 72° WSW 08:40:16 10° SSE
SL-16 R/B 3.9 08:31:39 11° W 08:35:30 20° NW 08:39:40 10° N
Cosmos 1271 Rocket 4.0 08:33:52 10° NW 08:36:55 23° W 08:38:06 20° WSW
Cosmos 2228 3.9 08:39:23 10° NNW 08:43:15 31° W 08:45:54 17° SW
BREEZE-M DEB (TANK) 2.6 08:42:55 15° WSW 08:46:50 70° NNW 08:49:13 10° NE
SL-16 R/B 3.8 08:46:14 15° SW 08:49:08 20° W 08:53:36 10° NW
Cosmos 1420 Rocket 4.3 08:44:19 10° S 08:49:25 68° ESE 08:54:36 10° NNE
SL-24 DEB 4.2 08:52:15 10° S 08:56:58 71° W 09:01:41 10° N
Cosmos 407 Rocket 3.6 08:52:09 10° NNW 08:57:23 60° WSW 09:02:31 10° S
Cosmos 1603 4.1 08:53:54 14° SW 08:58:38 50° WNW 09:04:09 10° NNE
Cosmos 1371 Rocket 4.0 08:55:16 11° SSW 09:00:10 70° WNW 09:05:21 10° NNE
Cosmos 2058 Rocket 3.0 08:55:50 10° N 09:00:13 76° W 09:04:33 10° S
Genesis I 3.2 08:57:31 10° NW 09:01:33 66° WSW 09:05:27 10° SSE
Cosmos 1626 Rocket 4.2 08:57:17 10° S 09:01:37 59° E 09:05:56 10° NNE
CZ-2D R/B 4.3 09:02:50 10° NW 09:03:35 10° NW 09:04:19 10° WNW
MOS 1-B Rocket 3.9 08:59:05 10° S 09:04:37 61° WSW 09:10:19 10° NNW
Cosmos 1140 Rocket 3.8 08:59:44 10° NNW 09:04:46 48° WSW 09:09:45 10° S
SeaSat 1 3.5 09:01:25 10° NE 09:06:07 43° ESE 09:10:47 10° S
COSMOS 2455 4.4 09:01:56 10° W 09:06:41 24° NW 09:11:29 10° N
GPS 2-04 Rocket1 3.5 09:05:26 13° SW 09:08:00 29° S 09:11:06 10° ESE
Helios 1B rocket 3.0 09:09:13 10° N 09:13:03 41° WNW 09:16:52 10° SW
Intercosmos 25 Rocket 4.3 09:12:38 10° N 09:16:08 57° E 09:21:12 10° SSE
Nadezhda 3 Rocket 4.3 09:10:44 10° S 09:16:59 72° E 09:23:14 10° NNE
Lacrosse 5 rocket 3.8 09:15:27 10° NW 09:17:30 13° NNW 09:19:36 10° NNE
Cosmos 1633 4.3 09:14:28 10° SSE 09:17:39 32° E 09:20:52 10° NNE
Cosmos 2218 Rocket 4.3 09:11:42 10° NNW 09:17:41 50° W 09:23:43 10° SSW
METEOR-M 4.4 09:15:20 10° NNE 09:20:42 74° ESE 09:26:03 10° S
Cosmos 1954 Rocket 4.1 09:16:19 10° NNW 09:21:41 84° WSW 09:26:59 10° SSE
Cosmos 1825 2.1 09:18:19 10° S 09:22:01 87° W 09:25:46 10° N
CZ-2D R/B 3.6 09:18:13 10° NNE 09:22:14 74° ESE 09:26:10 10° S
CZ-3 R/B 4.2 08:42:54 10° WSW 09:26:14 54° SSW 09:37:03 10° ESE
OAO 2 Rocket 3.9 09:22:26 10° WSW 09:27:02 39° S 09:31:36 10° ESE
Cosmos 1758 Rocket 4.3 09:24:17 10° S 09:28:33 55° E 09:32:49 10° NNE
Cosmos 1943 4.5 09:24:14 10° WSW 09:29:00 27° NW 09:33:49 10° N
